Temperature
15 14 14 14 14 14 14 14 14 13 13 13 13 13 13 13 13 13 13 13 13 12 12 12 12 12 12 12 12 12 11 11 11 11 11 11 11 11 11 10 10 10 10
14 14 14 14 14 14 14 13 13 13 13 13 13 13 13 13 13 13 13 13 12 12 12 12 12 12 12 12 12 11 11 11 11 11 11 11 11 10 10 10 10 10 10
14 14 14 14 14 14 13 13 13 13 13 13 12 13 13 13 12 12 12 12 12 12 12 12 12 12 12 11 11 11 11 11 11 11 11 10 10 10 10 10 10 10 10
14 13 13 13 13 13 13 13 13 13 12 12 12 12 12 12 12 12 12 12 12 12 12 12 12 11 11 11 11 11 11 11 11 10 10 10 10 10 10 10 10 10 10
13 13 13 13 13 13 13 13 12 12 12 12 12 12 12 12 12 12 12 12 12 12 11 11 11 11 11 11 11 11 10 10 10 10 10 10 10 10 9 9 9 9 9
13 13 13 13 12 12 12 12 12 12 12 12 12 12 12 12 12 12 11 11 11 11 11 11 11 11 11 11 10 10 10 10 10 10 10 10 9 9 9 9 9 9 9
13 13 12 12 12 12 12 12 12 12 12 12 12 11 11 11 11 11 11 11 11 11 11 10 11 10 10 10 10 10 10 10 10 10 10 9 9 9 9 9 9 9 9
12 12 12 12 12 12 12 12 12 11 11 11 11 11 11 11 11 11 11 11 11 10 10 10 10 10 10 10 10 10 10 9 9 9 9 9 9 9 9 8 8 8 9
12 12 12 12 11 11 11 11 11 11 11 11 11 11 11 11 10 10 10 10 10 10 10 10 10 10 10 9 9 9 9 9 9 9 9 9 8 8 8 8 8 8 8
12 12 11 11 11 11 11 11 11 11 11 10 10 10 10 10 10 10 10 10 10 10 10 9 9 9 9 9 9 9 9 9 9 9 9 8 8 8 8 8 8 8 8
11 11 11 11 11 11 11 10 10 10 10 10 10 10 10 10 10 10 10 9 9 9 9 9 9 9 9 8 8 8 8 8 8 8 8 8 8 8 8 8 7 7 7
11 11 11 10 10 10 10 10 10 10 10 10 9 9 9 9 9 9 9 9 9 9 9 9 9 9 8 8 8 8 8 8 8 8 8 7 7 7 7 7 7 7 7
10 10 10 10 10 10 10 10 9 9 9 9 9 9 9 9 9 9 9 9 9 9 9 8 8 8 8 8 8 8 8 7 7 7 7 7 7 7 7 7 7 7 7
10 10 9 9 9 9 9 9 9 9 9 9 9 9 9 9 9 9 9 8 8 8 8 8 8 8 8 7 7 7 7 7 7 7 7 7 6 6 6 6 6 6 6
9 9 9 9 9 9 9 9 9 9 9 8 8 8 8 8 8 8 8 8 8 8 7 7 7 7 7 7 7 7 7 6 6 6 6 6 6 6 6 6 5 5 5
9 9 8 9 9 8 9 9 8 8 8 8 8 8 8 8 8 8 8 8 7 7 7 7 7 7 6 6 6 6 6 6 6 6 6 5 5 5 5 5 5 5 5
9 8 8 8 8 8 8 8 8 8 8 7 7 7 7 7 7 7 7 7 7 6 6 6 6 6 6 5 5 5 5 5 5 5 5 5 5 5 5 5 5 5 5
8 8 8 8 8 8 8 8 7 7 7 7 7 7 7 7 7 7 7 6 6 6 6 6 6 5 5 5 5 5 5 5 5 5 5 5 5 4 4 4 4 4 4
8 7 7 7 7 7 7 7 7 7 7 7 7 7 6 6 6 6 6 6 6 6 6 5 5 5 5 5 5 5 5 5 5 4 4 4 4 4 4 4 4 4 4
7 7 7 7 7 7 7 7 7 6 7 6 6 6 6 6 6 5 5 5 5 5 5 5 5 5 5 5 4 4 4 4 4 4 4 4 4 4 4 4 4 4 4
7 6 6 6 6 6 6 6 6 6 6 6 6 6 5 5 5 5 5 5 5 5 5 5 5 4 4 4 4 4 4 4 4 4 4 3 3 3 3 3 3 3 3
6 6 6 6 6 6 6 6 6 6 6 5 5 5 5 5 4 4 4 4 4 4 4 4 4 4 4 4 4 4 4 4 4 3 3 3 3 3 3 3 3 3 3
5 5 5 5 5 5 5 5 5 5 5 5 5 5 4 4 4 4 4 4 4 4 4 4 4 4 4 4 4 4 4 4 3 3 3 3 3 3 3 3 3 3 3
5 5 5 5 5 5 5 5 5 5 4 4 4 4 4 4 4 4 4 4 3 3 3 3 3 3 3 3 3 3 3 3 3 3 3 2 2 2 2 2 2 2 2
5 5 5 4 4 4 4 4 4 4 4 4 4 4 3 3 3 3 3 3 3 3 3 3 3 3 3 3 3 3 3 3 3 3 2 2 2 2 2 2 2 2 2
4 4 4 4 4 4 4 3 3 3 3 3 3 3 3 3 3 3 3 3 2 2 3 3 3 3 3 3 3 3 3 3 3 2 2 2 2 2 2 1 1 1 1
Wind_Speed
5 5 4 4 3 3 3 4 4 4 4 4 4 3 3 3 4 4 4 4 4 3 2 3 2 2 2 1 2 2 2 2 2 2 1 1 0 1 1 2 3 3 3
5 4 4 4 3 3 4 4 4 4 4 4 4 3 3 3 4 5 5 5 5 4 3 3 2 2 2 2 2 2 2 2 3 2 1 1 1 1 1 2 2 3 4
4 4 3 3 3 4 4 3 4 4 3 3 4 4 3 3 4 4 5 5 5 5 4 4 3 3 2 2 2 2 2 2 2 2 1 1 1 1 1 1 1 2 3
3 3 3 3 4 4 4 3 4 4 4 4 4 4 4 3 4 4 4 4 4 3 3 3 3 4 4 4 3 3 2 2 2 2 1 1 1 1 0 0 2 2 2
3 3 3 3 3 3 3 3 3 3 3 4 4 3 3 3 4 4 4 5 4 3 3 2 3 4 5 4 3 3 4 3 2 2 1 1 1 0 1 1 2 2 2
3 3 3 2 2 2 3 3 3 3 2 3 4 4 3 3 4 6 6 4 4 4 3 2 2 3 4 4 4 5 6 5 4 3 2 3 3 3 2 2 1 1 2
3 3 2 2 2 3 2 2 3 3 3 3 3 3 3 3 4 6 6 5 4 4 3 3 2 2 2 1 2 2 3 5 6 5 4 5 4 4 3 2 2 3 3
3 2 2 2 3 3 2 3 3 3 3 3 3 3 3 3 4 5 5 4 3 3 3 4 3 2 2 2 2 1 2 2 3 4 5 5 5 4 5 4 5 3 2
3 3 3 3 3 3 3 3 3 3 3 3 3 4 3 3 3 4 4 3 2 1 1 2 3 3 3 2 2 2 1 2 2 3 4 4 5 5 4 2 2 1 2
3 3 3 3 3 4 4 3 3 3 3 3 3 3 4 3 3 4 4 3 3 2 1 1 2 3 2 3 3 3 3 3 2 1 1 2 1 2 3 3 4 3 2
2 1 2 2 3 3 3 2 2 3 3 3 3 2 3 3 3 4 4 3 3 3 2 1 2 2 3 2 3 3 4 3 2 1 1 1 1 1 1 1 2 3 3
1 1 1 2 3 2 2 1 1 2 3 3 3 2 1 2 3 3 3 3 3 3 3 2 2 3 2 2 2 2 2 1 1 1 0 1 1 1 2 1 2 2 3
1 1 1 2 2 3 4 4 2 2 3 3 3 3 2 1 2 3 3 2 3 2 2 2 2 2 1 1 1 1 2 2 2 1 2 2 2 2 1 1 1 1 2
2 2 2 2 2 2 2 4 4 4 4 4 3 3 3 2 2 2 1 1 2 2 1 1 1 1 1 0 0 1 1 2 2 2 2 2 1 1 1 1 1 1 1
3 3 3 3 2 2 2 3 4 5 5 6 5 4 4 4 4 4 3 3 3 3 2 1 1 1 1 1 0 0 0 1 1 1 1 1 1 1 1 1 1 1 1
3 3 3 3 2 2 2 1 2 3 4 6 6 5 4 4 4 5 4 3 4 5 4 2 2 2 2 2 1 1 1 2 2 2 2 2 2 2 1 1 1 1 2
5 4 3 3 3 3 2 3 2 2 2 4 5 5 4 4 5 5 5 4 4 6 3 3 3 3 3 2 2 2 2 2 2 2 2 2 2 2 2 2 2 2 2
4 4 4 4 4 3 3 3 4 3 2 2 2 4 4 4 5 5 5 4 3 3 3 4 4 4 3 3 3 3 3 2 2 2 2 2 2 2 2 2 2 2 2
3 3 3 3 3 3 3 3 3 4 3 3 1 1 3 3 3 4 5 4 4 4 3 4 4 4 4 4 3 3 3 3 3 3 3 3 2 2 3 3 3 3 3
3 4 3 3 2 2 2 3 3 3 3 3 3 3 3 2 2 3 3 3 4 4 4 4 3 3 4 4 3 3 3 3 3 3 3 3 3 3 4 4 3 3 3
2 3 3 2 3 3 3 3 3 3 3 3 3 3 5 4 4 4 4 4 4 4 4 4 3 3 4 3 3 4 4 4 4 3 3 4 3 3 3 3 4 4 3
2 2 2 2 2 2 2 3 3 3 3 3 2 2 3 3 3 3 3 4 4 3 4 4 4 3 4 4 4 4 4 4 4 4 4 3 3 3 3 3 3 3 3
2 2 2 2 2 2 2 2 2 3 3 3 3 2 3 3 3 3 4 3 3 3 3 3 3 3 3 3 4 4 5 5 5 5 5 4 4 4 3 4 4 4 4
2 2 2 2 2 2 2 2 3 3 3 3 3 3 3 3 3 4 3 3 3 3 3 3 4 4 4 4 4 5 5 6 6 6 6 5 5 4 4 4 4 4 4
2 2 2 2 2 2 2 2 2 2 2 3 3 3 3 3 3 3 3 3 3 3 3 3 3 4 5 6 5 5 7 8 8 6 5 5 5 5 5 4 4 4 4
1 2 2 2 2 2 2 2 2 2 3 3 3 3 3 3 3 3 3 3 3 3 3 3 4 4 5 5 6 7 7 7 8 8 6 4 4 4 4 4 5 4 4
Wind_Direction
181 183 182 192 193 179 183 197 194 190 185 186 191 187 188 193 185 174 181 170 162 168 167 155 168 159 147 148 144 142 141 144 178 259 275 301 277 263 244 226 236 242 243
181 179 185 185 178 179 191 197 186 179 186 186 181 180 189 191 185 180 182 176 171 175 182 168 190 174 159 165 158 167 176 173 168 203 267 304 270 248 236 236 248 260 250
169 178 189 187 187 196 198 195 181 175 175 177 176 183 192 194 190 187 180 176 175 177 178 179 195 176 186 192 180 184 191 183 162 170 215 244 276 310 332 298 288 282 271
162 173 188 203 208 205 201 191 186 182 179 187 189 191 194 193 187 180 174 170 173 179 183 184 191 188 194 195 192 191 178 157 144 149 191 242 262 298 94 263 303 299 287
162 175 202 210 211 203 194 192 193 187 191 186 178 183 192 194 190 176 170 170 174 177 189 206 215 205 200 194 184 182 166 158 155 164 202 228 239 223 233 227 241 288 289
177 200 212 204 208 209 200 189 182 183 186 172 181 186 192 204 194 179 168 168 171 174 192 220 231 222 217 205 194 188 178 175 185 191 207 214 229 221 217 217 216 279 286
192 211 216 214 214 221 205 185 187 186 176 177 184 180 191 213 192 180 168 156 164 178 185 198 221 220 206 204 212 208 204 204 200 193 203 219 217 214 201 216 216 219 238
195 216 222 217 216 213 190 186 192 180 177 183 185 183 177 191 177 173 156 145 153 175 187 192 194 217 201 178 178 209 238 244 231 211 207 221 222 207 201 210 214 226 259
217 227 228 216 205 198 197 202 200 182 184 184 180 175 174 191 178 165 147 145 156 189 201 190 194 212 235 195 163 172 225 282 280 241 228 227 232 228 202 171 185 188 261
239 242 230 216 203 201 205 206 201 187 194 186 181 182 180 191 187 177 160 155 167 191 214 220 209 207 212 183 174 177 212 252 264 289 285 281 261 234 216 193 194 199 215
235 240 218 208 205 197 196 202 188 182 178 180 178 190 190 188 190 188 175 169 183 185 195 224 232 214 209 202 184 188 219 232 219 209 234 289 336 311 271 231 202 196 203
206 213 206 205 202 181 168 179 178 177 172 178 172 182 206 204 193 203 194 176 165 169 197 210 217 212 214 212 207 215 209 175 137 132 191 256 255 268 270 257 235 228 226
184 219 222 201 194 183 178 178 178 181 184 195 190 200 214 216 217 213 201 192 178 170 192 195 202 209 213 217 208 176 149 146 154 179 215 238 242 240 244 297 316 323 326
197 234 232 201 203 212 193 183 185 191 196 199 205 208 210 210 213 197 182 171 153 152 170 176 136 118 124 135 125 124 151 177 182 205 224 243 253 250 248 244 263 305 308
210 226 234 219 205 213 209 207 205 210 204 200 206 205 198 212 223 201 180 187 185 179 147 108 84 76 62 43 29 39 199 177 204 216 203 221 231 232 254 249 223 234 241
213 225 228 216 211 210 204 243 267 232 229 221 209 205 215 219 201 192 194 187 174 155 137 153 178 192 205 211 217 247 247 234 232 221 212 210 217 225 244 249 232 228 246
208 219 221 211 205 209 206 199 229 299 269 241 219 212 204 188 187 187 187 175 165 150 149 182 197 208 218 221 223 225 234 239 229 218 220 221 225 227 225 236 239 248 257
213 222 217 210 208 210 212 209 203 207 225 248 239 220 203 194 192 190 171 145 165 177 192 201 209 214 219 224 229 232 232 225 217 220 221 219 220 225 228 228 230 239 253
220 219 212 207 208 211 209 202 201 206 208 208 210 222 205 192 186 189 169 175 197 212 218 218 217 216 222 224 227 226 219 220 219 215 220 226 226 224 233 234 232 247 248
223 230 222 199 196 203 204 200 200 201 203 201 204 206 191 172 185 199 205 203 207 215 216 220 222 223 224 224 223 221 220 222 220 219 223 226 228 226 228 229 230 236 243
217 224 230 206 198 204 208 208 202 195 194 201 211 205 187 188 202 207 212 217 218 219 217 218 221 223 225 223 220 218 218 224 223 220 220 224 225 228 228 223 228 233 239
211 215 209 202 199 201 207 203 196 191 192 198 208 199 194 192 203 214 220 226 227 222 215 213 220 221 220 217 217 219 222 225 224 220 220 223 226 230 231 230 229 236 242
215 220 215 209 195 192 184 187 194 192 191 196 196 192 198 208 214 220 225 229 225 226 218 212 223 232 228 220 216 217 221 224 223 214 212 216 220 224 228 236 237 239 239
221 211 209 208 195 183 186 196 196 194 193 196 200 202 208 217 224 229 230 228 228 227 216 214 223 230 234 229 226 225 225 224 217 211 208 212 217 224 230 234 236 235 235
223 207 199 196 192 193 197 201 202 205 207 209 210 211 215 220 229 235 231 225 229 231 232 229 226 229 232 233 232 232 234 230 224 215 209 207 214 219 221 225 231 234 235
223 196 191 191 193 193 198 207 213 216 214 217 217 216 218 223 230 234 229 224 230 239 241 235 232 237 244 239 234 233 234 231 224 215 205 203 210 217 216 225 228 228 227
Height
1504 1506 1507 1508 1509 1510 1510 1511 1511 1511 1512 1512 1513 1513 1514 1514 1515 1515 1516 1517 1517 1518 1518 1519 1519 1520 1520 1520 1520 1520 1521 1521 1520 1521 1521 1521 1521 1521 1520 1520 1520 1520 1519
1502 1503 1504 1505 1506 1507 1507 1508 1508 1508 1509 1509 1510 1511 1511 1511 1512 1512 1513 1514 1515 1515 1516 1516 1517 1518 1518 1518 1518 1518 1518 1519 1519 1518 1519 1519 1519 1519 1518 1518 1518 1518 1518
1499 1500 1501 1502 1503 1503 1504 1505 1505 1505 1506 1507 1507 1508 1509 1509 1509 1509 1510 1511 1512 1513 1513 1514 1514 1515 1515 1516 1516 1516 1516 1517 1517 1516 1516 1517 1517 1517 1516 1516 1516 1516 1516
1497 1497 1498 1499 1499 1500 1501 1501 1502 1502 1503 1504 1505 1505 1506 1506 1506 1506 1507 1508 1509 1510 1511 1511 1512 1512 1513 1513 1513 1514 1514 1514 1514 1514 1514 1514 1514 1514 1514 1514 1514 1514 1513
1494 1494 1495 1495 1496 1497 1497 1498 1498 1499 1500 1501 1502 1502 1503 1503 1503 1504 1504 1505 1506 1507 1508 1508 1509 1509 1510 1510 1511 1511 1511 1512 1512 1512 1512 1512 1512 1512 1512 1511 1511 1511 1511
1491 1492 1492 1492 1493 1493 1494 1494 1495 1496 1496 1498 1498 1499 1499 1500 1500 1501 1502 1502 1503 1504 1504 1505 1506 1506 1507 1507 1508 1508 1509 1509 1509 1509 1509 1509 1509 1509 1509 1509 1509 1508 1508
1489 1489 1490 1490 1490 1490 1490 1491 1491 1492 1493 1494 1495 1495 1496 1497 1498 1498 1499 1500 1500 1501 1501 1502 1503 1503 1504 1504 1504 1505 1506 1506 1507 1507 1506 1506 1506 1507 1507 1507 1506 1506 1506
1486 1487 1487 1487 1487 1487 1487 1487 1488 1489 1490 1491 1491 1492 1493 1494 1495 1495 1496 1497 1497 1498 1498 1499 1499 1500 1500 1501 1501 1502 1502 1502 1503 1503 1503 1503 1504 1504 1504 1504 1504 1503 1503
1483 1483 1484 1484 1484 1484 1484 1484 1485 1486 1486 1487 1488 1489 1490 1491 1492 1493 1493 1493 1494 1495 1495 1496 1496 1496 1497 1497 1498 1498 1498 1499 1499 1500 1500 1500 1500 1500 1500 1500 1500 1500 1499
1480 1480 1480 1481 1481 1481 1481 1482 1482 1483 1483 1484 1485 1486 1486 1488 1489 1489 1490 1490 1490 1491 1492 1492 1493 1493 1493 1494 1494 1494 1494 1495 1495 1496 1496 1496 1496 1496 1497 1497 1497 1497 1496
1477 1477 1477 1477 1478 1478 1479 1479 1479 1480 1480 1481 1482 1482 1483 1484 1485 1486 1487 1487 1487 1488 1488 1489 1489 1490 1490 1490 1491 1491 1491 1491 1491 1492 1492 1492 1492 1493 1493 1493 1493 1493 1493
1474 1473 1473 1474 1474 1475 1476 1476 1476 1477 1477 1478 1478 1479 1480 1481 1482 1483 1484 1484 1485 1485 1485 1485 1486 1486 1487 1487 1487 1487 1488 1488 1488 1488 1488 1488 1488 1488 1489 1489 1489 1489 1489
1471 1470 1470 1471 1471 1472 1472 1473 1473 1474 1474 1474 1475 1475 1476 1477 1479 1480 1480 1481 1481 1482 1482 1482 1482 1483 1483 1483 1484 1484 1484 1484 1484 1484 1484 1484 1484 1485 1485 1485 1485 1485 1485
1467 1468 1467 1467 1468 1468 1469 1469 1470 1470 1470 1471 1471 1472 1472 1474 1475 1475 1476 1477 1477 1478 1478 1478 1478 1479 1479 1480 1480 1480 1480 1481 1481 1480 1480 1481 1481 1481 1481 1481 1481 1481 1481
1464 1464 1464 1464 1464 1465 1465 1466 1466 1467 1467 1468 1468 1468 1469 1469 1471 1472 1472 1473 1473 1474 1474 1474 1474 1474 1475 1475 1476 1476 1477 1477 1477 1477 1477 1477 1477 1477 1477 1477 1477 1477 1477
1460 1460 1461 1460 1461 1461 1461 1461 1462 1463 1464 1465 1465 1465 1466 1467 1468 1468 1469 1469 1470 1470 1470 1470 1470 1470 1471 1471 1472 1472 1473 1473 1473 1474 1474 1473 1473 1473 1474 1474 1474 1474 1473
1456 1457 1457 1456 1456 1457 1457 1457 1457 1459 1460 1460 1461 1461 1462 1463 1464 1465 1465 1466 1466 1466 1466 1466 1466 1467 1467 1468 1468 1468 1469 1469 1470 1470 1470 1470 1470 1470 1470 1470 1470 1470 1470
1453 1453 1453 1452 1453 1453 1453 1453 1454 1454 1455 1455 1456 1457 1458 1459 1460 1461 1461 1462 1462 1462 1462 1462 1463 1463 1463 1464 1464 1465 1465 1465 1466 1466 1466 1466 1466 1466 1466 1466 1466 1466 1466
1448 1448 1448 1448 1448 1449 1449 1449 1450 1450 1451 1451 1452 1453 1454 1454 1455 1456 1457 1457 1457 1457 1458 1458 1459 1459 1460 1460 1461 1461 1461 1461 1461 1462 1462 1462 1462 1462 1462 1462 1462 1462 1462
1444 1444 1444 1444 1444 1445 1445 1445 1446 1446 1447 1447 1448 1448 1449 1450 1450 1451 1452 1453 1453 1453 1453 1454 1454 1455 1455 1456 1456 1456 1457 1457 1457 1457 1457 1458 1458 1458 1458 1458 1458 1458 1458
1440 1440 1440 1440 1440 1441 1441 1441 1442 1442 1443 1443 1444 1444 1445 1445 1446 1446 1447 1448 1448 1448 1449 1449 1450 1450 1451 1451 1451 1452 1452 1452 1452 1453 1453 1453 1454 1454 1454 1454 1454 1455 1454
1436 1436 1436 1436 1436 1436 1437 1438 1438 1438 1439 1439 1440 1441 1441 1441 1442 1442 1442 1443 1443 1444 1444 1444 1445 1445 1446 1446 1447 1446 1447 1447 1447 1448 1448 1449 1449 1449 1450 1450 1450 1450 1450
1433 1432 1432 1432 1432 1433 1433 1434 1434 1435 1435 1436 1436 1437 1437 1437 1437 1438 1438 1438 1439 1439 1440 1440 1440 1440 1441 1441 1441 1442 1442 1442 1442 1443 1443 1444 1444 1444 1445 1445 1445 1446 1446
1429 1428 1428 1428 1429 1429 1429 1429 1430 1431 1431 1432 1432 1433 1433 1433 1433 1434 1434 1434 1434 1435 1435 1435 1435 1435 1436 1436 1436 1436 1437 1437 1437 1438 1438 1439 1439 1440 1440 1441 1441 1441 1442
1425 1424 1424 1425 1425 1425 1425 1426 1426 1427 1427 1428 1428 1429 1429 1429 1429 1430 1430 1430 1430 1430 1431 1431 1431 1431 1431 1431 1431 1431 1431 1432 1432 1433 1433 1434 1434 1435 1435 1436 1436 1437 1437
1422 1421 1421 1422 1422 1422 1422 1422 1423 1423 1424 1424 1425 1425 1425 1425 1425 1426 1426 1426 1426 1426 1426 1426 1426 1426 1426 1426 1426 1426 1426 1427 1427 1427 1428 1428 1429 1429 1430 1431 1431 1432 1432